Daggett-Barstow, CA

11:20 PM PST on December 14, 2017 (GMT -0800)
Barstow-Daggett

Weather History for KDAG - February, 2014

Change the Weather History Date:

Wednesday, February 12, 2014

  Actual Average Record
Temperature  
Mean Temperature 62 °F 52 °F  
Max Temperature 79 °F 64 °F 79 °F (2014)
Min Temperature 45 °F 39 °F 21 °F (1999)
Degree Days  
Heating Degree Days 3    
Cooling Degree Days 0    
Growing Degree Days 12 (Base 50)    
Moisture  
Dew Point 27 °F    
Average Humidity 31    
Maximum Humidity 52    
Minimum Humidity 14    
Precipitation  
Precipitation 0.00 in 0.03 in 1.06 in (1992)
Month to date precipitation 0.25  
Year to date precipitation 0.85  
Sea Level Pressure  
Sea Level Pressure 30.10 in    
Wind  
Wind Speed 8 mph (West)    
Max Wind Speed 14 mph    
Max Gust Speed -    
Visibility 10 miles    
Events      
T = Trace of Precipitation, MM = Missing Value Source: NWS Daily Summary

Daily Weather History Graph

Daily Weather History Graph

Search for Another Location

Airport or City:

Trip Planner

Search our weather history database for the weather conditions in past years. The results will help you decide how hot, cold, wet, or windy it might be!

Date:

Astronomy

Feb. 12, 2014 Rise Set
Actual Time 6:35 AM PST 5:27 PM PST
Civil Twilight 6:09 AM PST 5:53 PM PST
Nautical Twilight 5:40 AM PST 6:23 PM PST
Astronomical Twilight 5:10 AM PST 6:52 PM PST
Moon 3:46 PM PST (2/12) 4:53 AM PST (2/12)
Length of Visible Light 11h 43m
Length of Day
10h 51m
Waxing Gibbous, 96% of the Moon is Illuminated
Feb 12
Waxing Gibbous
Feb 14
Full
Feb 22
Last Quarter
Mar 1
New
Mar 8
First Quarter

Hourly Weather History & Observations

Time (PST) Temp. Windchill Dew Point Humidity Pressure Visibility Wind Dir Wind Speed Gust Speed Precip Events Conditions
12:50 AM 50.0 °F - 30.9 °F 48% 30.13 in 10.0 mi West 11.5 mph - N/A   Clear
1:50 AM 50.0 °F - 30.9 °F 48% 30.14 in 10.0 mi WSW 9.2 mph - N/A   Clear
2:50 AM 48.9 °F - 30.9 °F 50% 30.13 in 10.0 mi NW 6.9 mph - N/A   Clear
3:50 AM 48.0 °F - 30.0 °F 50% 30.15 in 10.0 mi West 10.4 mph - N/A   Clear
4:50 AM 46.9 °F - 30.0 °F 52% 30.15 in 10.0 mi West 13.8 mph - N/A   Clear
5:50 AM 46.0 °F 40.2 °F 28.9 °F 51% 30.17 in 10.0 mi West 12.7 mph - N/A   Clear
6:50 AM 45.0 °F 40.6 °F 28.0 °F 52% 30.18 in 10.0 mi West 8.1 mph - N/A   Clear
7:50 AM 51.1 °F - 28.9 °F 43% 30.19 in 10.0 mi WSW 13.8 mph - N/A   Clear
8:50 AM 55.0 °F - 28.9 °F 37% 30.20 in 10.0 mi West 12.7 mph - N/A   Clear
9:50 AM 60.1 °F - 30.0 °F 32% 30.20 in 10.0 mi WSW 8.1 mph - N/A   Clear
10:50 AM 64.0 °F - 28.9 °F 27% 30.16 in 10.0 mi WNW 3.5 mph - N/A   Clear
11:50 AM 69.1 °F - 28.0 °F 22% 30.14 in 10.0 mi Variable 3.5 mph - N/A   Clear
12:50 PM 72.0 °F - 28.9 °F 20% 30.10 in 10.0 mi Variable 3.5 mph - N/A   Clear
1:50 PM 73.9 °F - 27.0 °F 18% 30.05 in 10.0 mi Calm Calm - N/A   Clear
2:50 PM 78.1 °F - 25.0 °F 14% 30.04 in 10.0 mi WNW 9.2 mph - N/A   Clear
3:50 PM 79.0 °F - 25.0 °F 14% 30.02 in 10.0 mi NW 9.2 mph - N/A   Clear
4:50 PM 75.9 °F - 25.0 °F 15% 30.02 in 10.0 mi WNW 5.8 mph - N/A   Clear
5:50 PM 70.0 °F - 26.1 °F 19% 30.03 in 10.0 mi SW 3.5 mph - N/A   Clear
6:50 PM 66.9 °F - 26.1 °F 21% 30.04 in 10.0 mi North 3.5 mph - N/A   Clear
7:50 PM 63.0 °F - 26.1 °F 25% 30.05 in 10.0 mi Calm Calm - N/A   Clear
8:50 PM 63.0 °F - 26.1 °F 25% 30.05 in 10.0 mi Calm Calm - N/A   Clear
9:50 PM 57.9 °F - 23.0 °F 26% 30.05 in 10.0 mi NNE 4.6 mph - N/A   Clear
10:50 PM 59.0 °F - 17.1 °F 20% 30.05 in 10.0 mi West 9.2 mph - N/A   Clear
11:50 PM 57.9 °F - 12.0 °F 16% 30.05 in 10.0 mi West 9.2 mph - N/A   Clear